Location: Les Chemineaux
(47.3024°N, 1.5104°E)
Time: 21:09:05
(UTC+00:00)

Cosmos 1535 Rocket - Pass Details

Date: 19 May 2025
Orbit: 948 x 1003 km, 83.0° (Epoch: 11 June)

Event Time Altitude Azimuth Distance (km) Brightness Sun altitude
Rises 23:12:15 0° 350° (N) 3,726 9.1 -22.2°
Reaches altitude 10° 23:14:48 10° 350° (N) 2,767 8.0 -22.2°
Maximum altitude 23:21:10 84° 264° (W) 995 4.4 -22.4°
Enters shadow 23:23:18 45° 180° (S) 1,316 4.7 -22.4°
